[[{"header":{"parameterUnit":"m.s-1","parameterCategory":2,"la1":30.2991,"la2":30.254,"lo1":-89.0895,"lo2":-89.0444,"dy":0.0017,"dx":0.0017,"nx":28,"ny":28,"refTime":"2025-04-16T21:00:00:Z","depth":"0","parameterNumber":2,"parameterNumberName":"U-component_of_CURRENTS"},"data":[0,0,0,0,0,0,0,0,0,0,0,0,0,0,0,0,0,0,0,0,0,0,0,0,0,0,0,0,0,0,0,0,0,0,0,0,0,0,0,0,0,0,0,0,0,0,0,0,0,0,0,0,0,0,0,0,0,0,0.2666,0.2666,0,0.2677,0.2677,0.2676,0.2656,0.2656,0.2655,0.2655,0.2658,0.2659,0.2659,0,0,0,0,0,0,0,0,0,0,0,0,0,0.2642,0.2642,0.2666,0.2666,0.2666,0.2677,0.2677,0.2676,0.2656,0.2656,0.2655,0.2655,0.2658,0.2659,0.2659,0,0,0,0,0,0,0,0,0,0,0,0,0,0.265,0.2642,0.2666,0.266,0.266,0.2677,0.2677,0.2676,0.2656,0.2656,0.2655,0.2654,0.2658,0.2659,0.2659,0.2676,0,0,0.2661,0.2662,0,0,0,0,0,0,0,0,0.2649,0.265,0.266,0.266,0.266,0.2667,0.267,0.2677,0.2656,0.2654,0.2655,0.2654,0.2663,0.2663,0.2662,0.2676,0.2676,0.2661,0.2662,0.2662,0.2662,0,0,0,0,0,0,0,0.2649,0.265,0.2667,0.2661,0.2661,0.2662,0.2662,0.2671,0.2659,0.2654,0.2654,0.266,0.2662,0.2662,0.2662,0.2676,0.2661,0.2662,0.2662,0.2663,0.2724,0.2725,0,0,0,0,0,0,0.2653,0.2649,0.2667,0.2668,0.2657,0.2663,0.2663,0.2663,0.2659,0.2659,0.2661,0.2659,0.2661,0.2662,0.2662,0.2701,0.2662,0.2663,0.2663,0.2723,0.2724,0.2725,0,0,0,0,0,0,0.2653,0.2655,0.2666,0.2661,0.2663,0.2664,0.2664,0.2664,0.2664,0.2665,0.2664,0.2663,0.266,0.2661,0.2679,0.27,0.2663,0.2664,0.2721,0.2723,0.2725,0.2766,0,0,0,0,0,0,0.2652,0.2654,0.2657,0.2662,0.2664,0.2683,0.2665,0.2664,0.2671,0.2669,0.2667,0.2666,0.266,0.2679,0.268,0.2701,0.2664,0.272,0.2722,0.2724,0.2763,0.2769,0.2774,0,0,0,0,0,0.2651,0.2657,0.2656,0.2659,0.2667,0.2684,0.2685,0.2682,0.2672,0.2678,0.2679,0.2666,0.2694,0.268,0.2682,0.2703,0.2719,0.2721,0.2724,0.2761,0.2768,0.2774,0,0,0,0,0,0,0.2646,0.2656,0.2655,0.2663,0.2677,0.2682,0.2689,0.2686,0.2691,0.2689,0.2681,0.2682,0.2707,0.2701,0.2686,0.2728,0.2705,0.2708,0.2732,0.2739,0.2744,0.2769,0.2665,0,0,0,0,0,0.2649,0.2655,0.2667,0.2674,0.2682,0.2686,0.2692,0.2693,0.27,0.27,0.2701,0.2706,0.272,0.2725,0.2735,0.2757,0.2796,0.2773,0.2778,0.2783,0.2805,0.2897,0.2914,0.2734,0.2734,0.2734,0,0,0.2649,0.2656,0.2659,0.2675,0.2682,0.2699,0.2687,0.2703,0.2717,0.2702,0.272,0.2727,0.2731,0.2757,0.2768,0.2754,0.2851,0.2786,0.279,0.2811,0.2902,0.292,0.2936,0.2736,0.2736,0.2736,0,0,0.2656,0.266,0.2669,0.2685,0.2705,0.2711,0.2718,0.273,0.2736,0.276,0.2755,0.278,0.279,0.2806,0.2813,0.2857,0.2879,0.2853,0.2899,0.2988,0.3004,0.3018,0.3079,0.3099,0.2853,0.2853,0.2853,0,0.2657,0.2667,0.2676,0.2694,0.2712,0.2718,0.2739,0.2749,0.2766,0.2797,0.2772,0.2835,0.2819,0.288,0.2881,0.2872,0.292,0.287,0.2997,0.3012,0.3027,0.3085,0.3107,0.2855,0.2855,0.2855,0.2855,0,0.2673,0.2684,0.2694,0.2716,0.274,0.2758,0.2782,0.2811,0.2819,0.2842,0.2907,0.2905,0.2955,0.294,0.2915,0.3008,0.3008,0.2996,0.2983,0.3048,0.3104,0.3126,0.2859,0.2858,0.2857,0.2857,0,0,0.266,0.2696,0.2697,0.2717,0.2754,0.2775,0.2822,0.2876,0.2927,0.295,0.3031,0.3036,0.3062,0.3072,0.306,0.3108,0.3218,0.309,0.3094,0.3155,0.3413,0.3329,0.3344,0.3238,0.3243,0.3246,0.3408,0,0.2665,0.2696,0.272,0.2758,0.2778,0.2823,0.2869,0.2928,0.2976,0.3056,0.3094,0.3153,0.3105,0.3133,0.3185,0.3218,0.328,0.3175,0.3338,0.3343,0.3265,0.3369,0.321,0.3335,0.3429,0.3432,0.3435,0,0.2663,0.2688,0.272,0.2789,0.2805,0.2833,0.2936,0.2982,0.3101,0.315,0.3246,0.3283,0.3371,0.331,0.3448,0.339,0.3414,0.3426,0.3433,0.3361,0.33,0.3288,0.3371,0.3321,0.3468,0.3466,0.3463,0,0.2635,0.2688,0.2712,0.2732,0.2809,0.2849,0.2899,0.3011,0.3078,0.3222,0.3304,0.3422,0.3487,0.3564,0.3584,0.3542,0.3725,0.3676,0.3632,0.3625,0.3526,0.3503,0.3584,0.3794,0.3794,0.3794,0.3793,0,0.2621,0.2641,0.2697,0.271,0.2769,0.2834,0.2923,0.3001,0.3136,0.324,0.3349,0.3456,0.3555,0.366,0.3671,0.3727,0.3815,0.3677,0.3681,0.353,0.3507,0.3484,0.3466,0.38,0.3798,0.3797,0.3796,0,0.2578,0.2607,0.2645,0.2722,0.2747,0.2792,0.2918,0.2994,0.3124,0.3273,0.3329,0.3517,0.3655,0.3735,0.3856,0.3828,0.3785,0.3874,0.3672,0.3648,0.3522,0.3511,0.3439,0.3348,0.3873,0.3872,0.3872,0,0.2556,0.2564,0.2637,0.2671,0.27,0.2777,0.2837,0.2967,0.3054,0.33,0.337,0.3561,0.3674,0.3833,0.3819,0.3868,0.3771,0.3742,0.3621,0.3529,0.3523,0.3347,0.3263,0.3509,0.3505,0.3502,0.35,0,0.2532,0.2552,0.2596,0.2653,0.2704,0.2768,0.2859,0.2916,0.3088,0.3217,0.3388,0.35,0.3654,0.3647,0.3707,0.37,0.3565,0.368,0.3662,0.3319,0.3063,0.2969,0.3376,0.3474,0.3476,0.3478,0.348,0.3481,0.2527,0.2553,0.261,0.266,0.2703,0.2741,0.277,0.2877,0.2987,0.3144,0.3302,0.34,0.3494,0.3547,0.3523,0.34,0.3375,0.3307,0.3329,0.3178,0.3001,0.3331,0.3375,0.3377,0.3378,0.338,0.3381,0,0.2547,0.2579,0.2622,0.2666,0.267,0.2711,0.2776,0.2793,0.2864,0.3001,0.3121,0.3192,0.3204,0.324,0.3184,0.3079,0.2899,0.3025,0.2776,0.2733,0.3118,0.3013,0.2885,0.2885,0.2885,0.2885,0.2885,0.2885,0.257,0.2614,0.2626,0.2623,0.2631,0.2614,0.2622,0.2647,0.2702,0.2745,0.276,0.2846,0.3004,0.3076,0.2979,0.2893,0.2705,0.2549,0.2592,0.2916,0.2943,0.2969,0.2867,0.2711,0.2711,0.2035,0.2031,0.2028]},{"header":{"parameterUnit":"m.s-1","parameterCategory":2,"la1":30.2991,"la2":30.254,"lo1":-89.0895,"lo2":-89.0444,"dy":0.0017,"dx":0.0017,"nx":28,"ny":28,"refTime":"2025-04-16T21:00:00:Z","depth":"0","parameterNumber":3,"parameterNumberName":"V-component_of_CURRENTS"},"data":[0,0,0,0,0,0,0,0,0,0,0,0,0,0,0,0,0,0,0,0,0,0,0,0,0,0,0,0,0,0,0,0,0,0,0,0,0,0,0,0,0,0,0,0,0,0,0,0,0,0,0,0,0,0,0,0,0,0,0.0285,0.0285,0,0.0268,0.0268,0.0268,0.0247,0.0247,0.0246,0.0246,0.0213,0.0213,0.0212,0,0,0,0,0,0,0,0,0,0,0,0,0,0.0274,0.0275,0.0285,0.0285,0.0285,0.0268,0.0268,0.0268,0.0247,0.0247,0.0246,0.0246,0.0213,0.0213,0.0212,0,0,0,0,0,0,0,0,0,0,0,0,0,0.027,0.0275,0.0285,0.0273,0.0272,0.0269,0.0268,0.0268,0.0247,0.0247,0.0246,0.0246,0.0214,0.0213,0.0212,0.0213,0,0,0.0209,0.0208,0,0,0,0,0,0,0,0,0.027,0.027,0.0275,0.0274,0.0273,0.026,0.0252,0.0249,0.0247,0.0255,0.0246,0.0246,0.0228,0.0226,0.0223,0.0211,0.021,0.0209,0.0208,0.0208,0.0207,0,0,0,0,0,0,0,0.027,0.027,0.0277,0.0275,0.0273,0.026,0.026,0.0251,0.0243,0.0255,0.0253,0.0253,0.0227,0.0224,0.0222,0.0209,0.0209,0.0208,0.0207,0.0207,0.02,0.0201,0,0,0,0,0,0,0.0276,0.0271,0.0278,0.0277,0.0271,0.0261,0.026,0.0264,0.0243,0.024,0.0254,0.0252,0.0225,0.0223,0.022,0.0237,0.0208,0.0207,0.0206,0.02,0.0201,0.0201,0,0,0,0,0,0,0.0276,0.0277,0.0278,0.0274,0.0273,0.0262,0.0266,0.0264,0.026,0.0243,0.0239,0.0253,0.0225,0.0222,0.0223,0.0234,0.0206,0.0205,0.02,0.02,0.0201,0.0258,0,0,0,0,0,0,0.0276,0.0277,0.0281,0.0275,0.0274,0.0284,0.0267,0.0264,0.0261,0.0259,0.0241,0.0238,0.0225,0.0225,0.0222,0.0233,0.0205,0.0199,0.02,0.0201,0.0256,0.0261,0.0265,0,0,0,0,0,0.0276,0.0288,0.0281,0.0282,0.028,0.0285,0.0283,0.0273,0.0262,0.0267,0.0256,0.0238,0.0227,0.0225,0.0221,0.0232,0.0199,0.02,0.0201,0.0254,0.026,0.0265,0,0,0,0,0,0,0.0285,0.0286,0.0279,0.029,0.0289,0.0282,0.0285,0.0276,0.0271,0.0269,0.0248,0.0245,0.0247,0.0232,0.0229,0.0231,0.0208,0.0208,0.025,0.0255,0.026,0.0278,0.0204,0,0,0,0,0,0.0289,0.0298,0.0295,0.0303,0.0304,0.0294,0.0293,0.0288,0.0283,0.028,0.027,0.0257,0.0248,0.0246,0.0236,0.0242,0.0228,0.0244,0.0249,0.0253,0.0265,0.0253,0.0258,0.0204,0.0204,0.0204,0,0,0.0295,0.0296,0.0301,0.0305,0.0302,0.032,0.0292,0.0298,0.0314,0.0278,0.0295,0.0273,0.0252,0.0259,0.0258,0.0249,0.026,0.0254,0.0258,0.0267,0.0254,0.026,0.0265,0.0205,0.0205,0.0205,0,0,0.0318,0.0313,0.033,0.0335,0.0337,0.0337,0.034,0.0338,0.0337,0.0348,0.0324,0.0314,0.0304,0.0295,0.0287,0.031,0.0283,0.03,0.0343,0.0332,0.0336,0.034,0.033,0.0332,0.0306,0.0306,0.0306,0,0.0324,0.0347,0.0335,0.0356,0.037,0.0349,0.0378,0.0376,0.0375,0.0385,0.0362,0.0353,0.0324,0.0339,0.0338,0.0322,0.031,0.0325,0.0339,0.0342,0.0345,0.0334,0.0336,0.0309,0.0308,0.0308,0.0308,0,0.0364,0.0382,0.0394,0.0417,0.043,0.045,0.0452,0.0463,0.0455,0.0453,0.0462,0.0426,0.0426,0.0404,0.0374,0.0384,0.0367,0.0344,0.0328,0.0354,0.034,0.0341,0.0313,0.0312,0.0311,0.031,0,0,0.0385,0.0416,0.0422,0.0453,0.0467,0.0491,0.0516,0.0543,0.058,0.0552,0.0597,0.0546,0.0525,0.0514,0.0475,0.0451,0.0445,0.0407,0.0405,0.0403,0.0423,0.0388,0.0385,0.0424,0.0424,0.0425,0.0405,0,0.0422,0.048,0.0484,0.055,0.0585,0.0585,0.0623,0.0642,0.0648,0.0686,0.0638,0.0661,0.0569,0.058,0.0537,0.048,0.045,0.0453,0.0392,0.0391,0.0361,0.0386,0.0394,0.0375,0.0406,0.0406,0.0406,0,0.0463,0.0501,0.0566,0.0638,0.0656,0.0692,0.0764,0.0798,0.0826,0.0833,0.0829,0.0801,0.0773,0.0692,0.0598,0.0604,0.0516,0.0454,0.0452,0.0402,0.0358,0.0353,0.0376,0.0264,0.0407,0.0407,0.0407,0,0.0498,0.0565,0.0625,0.0646,0.0715,0.0754,0.0799,0.0842,0.0905,0.0939,0.0992,0.0934,0.0942,0.082,0.0673,0.0644,0.0568,0.0517,0.0402,0.0398,0.0386,0.038,0.03,0.0446,0.0446,0.0446,0.0446,0,0.0542,0.0593,0.0651,0.0687,0.0788,0.0815,0.0926,0.0958,0.1037,0.1143,0.108,0.1148,0.0973,0.0907,0.0738,0.0583,0.0618,0.0419,0.0395,0.0405,0.0401,0.0286,0.0211,0.0445,0.0445,0.0446,0.0446,0,0.0571,0.0599,0.0684,0.0768,0.0805,0.0883,0.1022,0.1115,0.1167,0.1309,0.1336,0.1324,0.1238,0.1048,0.0868,0.0694,0.0456,0.0462,0.0484,0.046,0.0232,0.0161,0.0036,-0.0029,0.034,0.0339,0.0339,0,0.0592,0.0633,0.0745,0.0818,0.0862,0.0981,0.1082,0.1169,0.1284,0.1427,0.1514,0.148,0.1479,0.1197,0.088,0.0597,0.045,0.0413,0.0343,0.0231,0.0133,0.0073,0.0023,0.0351,0.035,0.035,0.0349,0,0.0645,0.0677,0.0756,0.0897,0.101,0.1149,0.1296,0.1404,0.1539,0.1668,0.1812,0.1824,0.1558,0.1284,0.088,0.0664,0.0329,0.0392,0.0278,0.0137,0.0067,-0.0009,0.0351,0.0345,0.0345,0.0346,0.0346,0.0346,0.0693,0.076,0.0865,0.1003,0.1135,0.1306,0.1437,0.1615,0.1815,0.2032,0.202,0.207,0.1667,0.1117,0.0809,0.0293,0.0279,0.0145,0.007,0.0023,-0.0052,0.0294,0.0252,0.0252,0.0252,0.0252,0.0252,0,0.0766,0.0846,0.0974,0.1141,0.1288,0.1346,0.1581,0.1735,0.1985,0.2164,0.2288,0.2112,0.1624,0.1105,0.0408,0.0057,-0.0089,-0.0124,-0.0196,-0.0232,0.0089,0.0077,-0.0005,-0.0005,-0.0005,-0.0005,-0.0005,-0.0005,0.0814,0.0941,0.1004,0.124,0.1358,0.1567,0.1703,0.1945,0.2113,0.2342,0.2381,0.2379,0.2017,0.0791,0.0004,-0.0186,-0.0409,-0.0484,-0.0589,-0.0358,-0.0338,-0.0319,-0.0346,-0.0516,-0.0517,-0.0864,-0.0867,-0.087]}],[{"header":{"parameterUnit":"m.s-1","parameterCategory":2,"la1":30.2991,"la2":30.254,"lo1":-89.0895,"lo2":-89.0444,"dy":0.0017,"dx":0.0017,"nx":28,"ny":28,"refTime":"2025-04-16T21:00:00:Z","depth":"2","parameterNumber":2,"parameterNumberName":"U-component_of_CURRENTS"},"data":[0,0,0,0,0,0,0,0,0,0,0,0,0,0,0,0,0,0,0,0,0,0,0,0,0,0,0,0,0,0,0,0,0,0,0,0,0,0,0,0,0,0,0,0,0,0,0,0,0,0,0,0,0,0,0,0,0,0,0.2559,0.256,0,0.2571,0.2571,0.2571,0.2558,0.2558,0.2558,0.2558,0.2569,0.2569,0.2569,0,0,0,0,0,0,0,0,0,0,0,0,0,0.2536,0.2537,0.2559,0.256,0.256,0.2571,0.2571,0.2571,0.2559,0.2558,0.2558,0.2558,0.2568,0.2569,0.257,0,0,0,0,0,0,0,0,0,0,0,0,0,0.2544,0.2537,0.2559,0.2557,0.2557,0.2571,0.2571,0.2571,0.2559,0.2558,0.2558,0.2558,0.2568,0.2569,0.257,0.2581,0,0,0.2572,0.2572,0,0,0,0,0,0,0,0,0.2544,0.2545,0.2557,0.2558,0.2558,0.2566,0.2567,0.2575,0.2559,0.2555,0.2558,0.2557,0.257,0.257,0.2569,0.2581,0.2582,0.2572,0.2572,0.2573,0.2573,0,0,0,0,0,0,0,0.2543,0.2544,0.2561,0.2558,0.2558,0.256,0.256,0.2569,0.2562,0.2555,0.2555,0.2561,0.2569,0.2568,0.2569,0.2582,0.2572,0.2573,0.2573,0.2573,0.2636,0.2637,0,0,0,0,0,0,0.2548,0.2544,0.2561,0.2562,0.2553,0.2561,0.2561,0.2561,0.2562,0.2562,0.2562,0.2561,0.2567,0.2568,0.257,0.2612,0.2573,0.2573,0.2574,0.2635,0.2636,0.2637,0,0,0,0,0,0,0.2547,0.2549,0.256,0.2556,0.2558,0.2562,0.2562,0.2562,0.2567,0.2567,0.2567,0.2568,0.2567,0.2569,0.2589,0.2611,0.2574,0.2574,0.2633,0.2635,0.2637,0.2678,0,0,0,0,0,0,0.2546,0.2548,0.2552,0.2556,0.2558,0.2576,0.2562,0.2562,0.2572,0.2571,0.2573,0.2573,0.2567,0.2588,0.259,0.2612,0.2575,0.2632,0.2634,0.2636,0.2676,0.2681,0.2687,0,0,0,0,0,0.2545,0.2551,0.2552,0.2555,0.2562,0.2578,0.2579,0.2579,0.2573,0.258,0.2584,0.2573,0.2604,0.259,0.2591,0.2614,0.263,0.2633,0.2636,0.2673,0.268,0.2686,0,0,0,0,0,0,0.2543,0.2551,0.2552,0.256,0.2573,0.2577,0.2585,0.2585,0.2593,0.2594,0.2587,0.2589,0.2616,0.2611,0.2596,0.264,0.2616,0.2619,0.2644,0.265,0.2656,0.2677,0.2576,0,0,0,0,0,0.2546,0.2552,0.2563,0.2571,0.2579,0.2584,0.2591,0.2593,0.2601,0.2603,0.2607,0.2614,0.2628,0.2635,0.2645,0.2668,0.27,0.2685,0.2691,0.2695,0.2715,0.2795,0.281,0.2646,0.2646,0.2646,0,0,0.2547,0.2554,0.2557,0.2572,0.2579,0.2595,0.2586,0.2603,0.2618,0.2605,0.2627,0.2635,0.264,0.2667,0.2678,0.2665,0.2756,0.2699,0.2703,0.272,0.28,0.2816,0.283,0.2648,0.2648,0.2648,0,0,0.2555,0.256,0.2569,0.2584,0.2604,0.2609,0.2617,0.263,0.2639,0.2665,0.2661,0.2688,0.27,0.2715,0.2722,0.2766,0.2784,0.2765,0.2809,0.2886,0.2901,0.2914,0.2967,0.2985,0.2766,0.2766,0.2766,0,0.2558,0.2566,0.2576,0.2593,0.2609,0.2617,0.2637,0.2648,0.2668,0.2698,0.2679,0.2741,0.2728,0.2785,0.2788,0.278,0.2823,0.278,0.2896,0.2909,0.2922,0.2973,0.2992,0.2768,0.2768,0.2768,0.2768,0,0.2572,0.2583,0.2592,0.2613,0.2636,0.2653,0.2677,0.2707,0.272,0.2742,0.2807,0.2807,0.2857,0.2844,0.2822,0.2907,0.2907,0.2895,0.288,0.2942,0.299,0.301,0.2772,0.2771,0.277,0.277,0,0,0.2562,0.2595,0.2596,0.2615,0.2649,0.267,0.2715,0.2767,0.2818,0.2843,0.2919,0.2928,0.2956,0.2966,0.2958,0.2999,0.3098,0.2983,0.2986,0.3038,0.327,0.3157,0.3167,0.3116,0.312,0.3123,0.3264,0,0.2567,0.2594,0.2616,0.2652,0.267,0.2714,0.2759,0.2816,0.2864,0.294,0.2976,0.3033,0.2995,0.3025,0.3072,0.3103,0.3153,0.3061,0.32,0.3204,0.31,0.3187,0.2915,0.3009,0.3282,0.3286,0.3288,0,0.2565,0.2587,0.2616,0.2681,0.2697,0.2726,0.2827,0.2873,0.2984,0.3033,0.3124,0.3156,0.3241,0.3184,0.3312,0.3263,0.3276,0.3282,0.3289,0.3186,0.3128,0.2994,0.3033,0.332,0.3317,0.3315,0.3313,0,0.2539,0.2588,0.261,0.2628,0.2701,0.2744,0.2796,0.2904,0.2969,0.3104,0.3178,0.3291,0.3355,0.3419,0.3433,0.3398,0.3554,0.3514,0.3429,0.3421,0.3217,0.3184,0.3607,0.3607,0.3606,0.3606,0.3606,0,0.2525,0.2544,0.26,0.2611,0.2672,0.2736,0.2827,0.2904,0.3033,0.313,0.3227,0.3322,0.3419,0.3506,0.3509,0.3538,0.3636,0.3465,0.3463,0.3219,0.3186,0.3472,0.3455,0.3611,0.361,0.3609,0.3608,0,0.2485,0.2512,0.2549,0.2625,0.2652,0.27,0.2828,0.2903,0.3031,0.3168,0.3218,0.3386,0.3503,0.3567,0.3667,0.3625,0.3656,0.3627,0.3318,0.3276,0.3454,0.3437,0.3585,0.3582,0.358,0.3579,0.3577,0,0.2464,0.2471,0.2544,0.2577,0.2608,0.2691,0.2751,0.2881,0.2964,0.3194,0.3252,0.3417,0.3492,0.3606,0.3571,0.3586,0.3635,0.3317,0.3187,0.3475,0.346,0.3446,0.3432,0.2939,0.2932,0.2927,0.2923,0,0.2439,0.246,0.2503,0.2559,0.2612,0.2674,0.2768,0.2818,0.2987,0.3092,0.3231,0.3308,0.3422,0.3313,0.3325,0.3286,0.3296,0.3206,0.3634,0.2968,0.2873,0.2854,0.2862,0.2874,0.2879,0.2883,0.2885,0.2887,0.2435,0.2458,0.2512,0.2563,0.2609,0.2639,0.2666,0.2748,0.2831,0.2931,0.3083,0.3089,0.3123,0.2999,0.2904,0.2826,0.3052,0.2899,0.2913,0.2934,0.2816,0.272,0.2671,0.2675,0.2678,0.268,0.2683,0,0.2437,0.2476,0.2518,0.2566,0.2562,0.2612,0.2666,0.2642,0.2662,0.2735,0.2792,0.2566,0.2495,0.252,0.2334,0.232,0.2274,0.221,0.2134,0.2185,0.223,0.2072,0.1732,0.1729,0.1726,0.1723,0,0,0.2451,0.2483,0.2491,0.2493,0.2515,0.2503,0.25,0.2432,0.2432,0.2323,0.2273,0.2426,0.2486,0.2098,0.2037,0.1857,0.2003,0.1775,0.2548,0.2515,0.2555,0.2648,0.2467,0,0,0,0,0]},{"header":{"parameterUnit":"m.s-1","parameterCategory":2,"la1":30.2991,"la2":30.254,"lo1":-89.0895,"lo2":-89.0444,"dy":0.0017,"dx":0.0017,"nx":28,"ny":28,"refTime":"2025-04-16T21:00:00:Z","depth":"2","parameterNumber":3,"parameterNumberName":"V-component_of_CURRENTS"},"data":[0,0,0,0,0,0,0,0,0,0,0,0,0,0,0,0,0,0,0,0,0,0,0,0,0,0,0,0,0,0,0,0,0,0,0,0,0,0,0,0,0,0,0,0,0,0,0,0,0,0,0,0,0,0,0,0,0,0,0.0185,0.0185,0,0.0169,0.0169,0.0169,0.0151,0.0151,0.0151,0.0151,0.012,0.0119,0.0118,0,0,0,0,0,0,0,0,0,0,0,0,0,0.0176,0.0177,0.0185,0.0185,0.0185,0.0169,0.0169,0.0169,0.0151,0.0151,0.0151,0.0151,0.012,0.0119,0.0118,0,0,0,0,0,0,0,0,0,0,0,0,0,0.0171,0.0177,0.0185,0.0175,0.0174,0.0169,0.0169,0.0169,0.0151,0.0151,0.0151,0.0151,0.012,0.0119,0.0118,0.0116,0,0,0.0115,0.0115,0,0,0,0,0,0,0,0,0.0172,0.0171,0.0177,0.0176,0.0175,0.0163,0.0154,0.0151,0.0151,0.0159,0.0151,0.0151,0.0134,0.0132,0.0128,0.0115,0.0113,0.0115,0.0114,0.0114,0.0114,0,0,0,0,0,0,0,0.0172,0.0172,0.0178,0.0177,0.0176,0.0163,0.0162,0.0153,0.0147,0.0158,0.0157,0.0157,0.0133,0.0129,0.0127,0.0113,0.0115,0.0114,0.0113,0.0113,0.0105,0.0105,0,0,0,0,0,0,0.0178,0.0173,0.0178,0.0177,0.0174,0.0164,0.0163,0.0166,0.0147,0.0144,0.0157,0.0157,0.0131,0.0128,0.0126,0.0142,0.0114,0.0113,0.0112,0.0104,0.0105,0.0105,0,0,0,0,0,0,0.0178,0.0179,0.0179,0.0175,0.0174,0.0165,0.0168,0.0166,0.0164,0.0147,0.0143,0.0158,0.013,0.0127,0.0128,0.014,0.0112,0.0111,0.0104,0.0104,0.0105,0.0161,0,0,0,0,0,0,0.0178,0.0179,0.0183,0.0176,0.0175,0.0184,0.0169,0.0166,0.0165,0.0164,0.0146,0.0143,0.013,0.013,0.0127,0.0138,0.0111,0.0103,0.0104,0.0105,0.0159,0.0164,0.0168,0,0,0,0,0,0.0177,0.0189,0.0183,0.0184,0.0181,0.0185,0.0183,0.0174,0.0165,0.017,0.0161,0.0144,0.0132,0.013,0.0126,0.0137,0.0103,0.0104,0.0105,0.0157,0.0163,0.0168,0,0,0,0,0,0,0.0187,0.0188,0.0182,0.0192,0.0191,0.0182,0.0186,0.0178,0.0174,0.0173,0.0153,0.0149,0.0152,0.0137,0.0134,0.0135,0.0113,0.0113,0.0154,0.0159,0.0164,0.018,0.011,0,0,0,0,0,0.0191,0.0199,0.0196,0.0204,0.0205,0.0195,0.0194,0.019,0.0186,0.0183,0.0174,0.0162,0.0152,0.0151,0.014,0.0145,0.0126,0.0147,0.0152,0.0156,0.0166,0.0147,0.0151,0.0108,0.0108,0.0108,0,0,0.0197,0.0198,0.0202,0.0206,0.0203,0.0219,0.0194,0.02,0.0215,0.0181,0.0198,0.0177,0.0156,0.0162,0.0161,0.0152,0.0157,0.0157,0.016,0.0169,0.0148,0.0152,0.0156,0.0109,0.0109,0.0109,0,0,0.0218,0.0214,0.023,0.0234,0.0237,0.0236,0.024,0.0239,0.0238,0.0248,0.0226,0.0217,0.0206,0.0197,0.0188,0.021,0.0179,0.0201,0.0242,0.0223,0.0227,0.023,0.021,0.021,0.0207,0.0207,0.0207,0,0.0225,0.0246,0.0235,0.0254,0.0268,0.0249,0.0276,0.0274,0.0274,0.0282,0.0262,0.0252,0.0225,0.0236,0.0237,0.0222,0.0204,0.0225,0.023,0.0232,0.0234,0.0213,0.0213,0.021,0.0209,0.0209,0.0209,0,0.0262,0.0279,0.029,0.0312,0.0324,0.0343,0.0345,0.0356,0.035,0.0347,0.0354,0.032,0.0319,0.0298,0.0271,0.0276,0.0257,0.0236,0.0219,0.0242,0.0218,0.0217,0.0214,0.0213,0.0212,0.0211,0,0,0.0283,0.0311,0.0317,0.0346,0.0359,0.0382,0.0405,0.0428,0.0462,0.0437,0.0474,0.043,0.041,0.0399,0.0363,0.0336,0.032,0.0293,0.0291,0.0279,0.0279,0.0231,0.0225,0.0299,0.03,0.03,0.0256,0,0.0318,0.0371,0.0375,0.0437,0.0469,0.0469,0.0504,0.0521,0.0525,0.0555,0.0509,0.0527,0.045,0.0459,0.0416,0.0357,0.032,0.0334,0.0254,0.0251,0.0211,0.0223,0.0235,0.0194,0.0255,0.0254,0.0254,0,0.0357,0.0392,0.0453,0.052,0.0536,0.0571,0.0637,0.0668,0.0687,0.0692,0.0684,0.0653,0.0623,0.0551,0.0454,0.0467,0.0375,0.0311,0.0308,0.0245,0.0202,0.018,0.019,0.0252,0.0252,0.0253,0.0253,0,0.0392,0.0453,0.0509,0.0529,0.0593,0.0631,0.0674,0.071,0.0767,0.0789,0.0831,0.0772,0.0776,0.0653,0.0505,0.0487,0.0386,0.035,0.0217,0.0213,0.0199,0.0193,0.0267,0.0267,0.0267,0.0267,0.0268,0,0.0433,0.0482,0.0535,0.057,0.0665,0.0691,0.0796,0.0824,0.0891,0.0984,0.0914,0.0965,0.08,0.072,0.0556,0.039,0.0426,0.0229,0.02,0.0217,0.0213,0.0243,0.0241,0.0266,0.0266,0.0266,0.0267,0,0.0462,0.0488,0.0567,0.0646,0.0682,0.0757,0.0889,0.0972,0.1017,0.1139,0.1159,0.1126,0.1024,0.0832,0.0645,0.048,0.0309,0.0231,0.0257,0.0231,0.0135,0.0136,0.0097,0.0095,0.0093,0.0092,0.009,0,0.0482,0.052,0.0626,0.0695,0.0737,0.0853,0.0946,0.1027,0.1126,0.1245,0.1312,0.1254,0.1216,0.0913,0.0623,0.0337,0.0294,0.0147,0.0102,0.0143,0.0118,0.0122,0.0126,0.0107,0.0106,0.0105,0.0105,0,0.0528,0.0559,0.0633,0.0766,0.0873,0.1003,0.1139,0.1233,0.1354,0.1451,0.155,0.1525,0.1255,0.0966,0.0565,0.0364,0.0192,0.012,0.0174,0.0141,0.0146,0.0124,0.0129,0.0098,0.0098,0.0099,0.0099,0.0099,0.0572,0.0632,0.0729,0.0861,0.0986,0.114,0.1261,0.1403,0.1563,0.1707,0.1688,0.1646,0.1331,0.0806,0.0474,0.0132,0.0155,0.0013,0.0019,0.0024,0.0026,0.0027,-0.0043,-0.0043,-0.0044,-0.0044,-0.0044,0,0.0627,0.0705,0.0825,0.0984,0.1116,0.118,0.1388,0.1501,0.1685,0.1781,0.1836,0.1506,0.1181,0.0821,0.0318,0.001,-0.0007,-0.0103,-0.0048,-0.0039,-0.0031,-0.0031,-0.0116,-0.0117,-0.0118,-0.0119,0,0,0.0664,0.0774,0.0831,0.1054,0.1177,0.1374,0.1494,0.1649,0.1752,0.1813,0.1786,0.1706,0.1277,0.0889,0.0477,0.0191,0.0144,0.0121,0.0211,0.0335,0.0346,0.0065,0.0079,0,0,0,0,0]}],[{"header":{"parameterUnit":"m.s-1","parameterCategory":2,"la1":30.2991,"la2":30.254,"lo1":-89.0895,"lo2":-89.0444,"dy":0.0017,"dx":0.0017,"nx":28,"ny":28,"refTime":"2025-04-16T21:00:00:Z","depth":"4","parameterNumber":2,"parameterNumberName":"U-component_of_CURRENTS"},"data":[0,0,0,0,0,0,0,0,0,0,0,0,0,0,0,0,0,0,0,0,0,0,0,0,0,0,0,0,0,0,0,0,0,0,0,0,0,0,0,0,0,0,0,0,0,0,0,0,0,0,0,0,0,0,0,0,0,0,0.1613,0.1614,0,0.166,0.1661,0.1661,0.1708,0.1709,0.171,0.1711,0.1784,0.1786,0.1787,0,0,0,0,0,0,0,0,0,0,0,0,0,0.1559,0.156,0.1613,0.1614,0.1614,0.166,0.1661,0.1661,0.1708,0.1709,0.171,0.1711,0.1784,0.1785,0.1787,0,0,0,0,0,0,0,0,0,0,0,0,0,0.159,0.156,0.1613,0.1645,0.1648,0.166,0.1661,0.1661,0.1708,0.1709,0.171,0.1711,0.1784,0.1785,0.1787,0.1774,0,0,0.1793,0.1793,0,0,0,0,0,0,0,0,0.1588,0.1592,0.1639,0.1643,0.1647,0.1681,0.1669,0.1701,0.1708,0.1683,0.1711,0.1712,0.1753,0.1757,0.176,0.1777,0.178,0.1793,0.1794,0.1795,0.1795,0,0,0,0,0,0,0,0.1586,0.159,0.1629,0.164,0.1645,0.1656,0.1661,0.1675,0.1709,0.1685,0.1689,0.1698,0.1755,0.1758,0.1762,0.1781,0.1793,0.1794,0.1795,0.1796,0.1903,0.1904,0,0,0,0,0,0,0.1583,0.1588,0.1628,0.1631,0.1622,0.1656,0.1662,0.1667,0.1709,0.1717,0.1697,0.17,0.1754,0.176,0.1765,0.185,0.1795,0.1796,0.1797,0.1901,0.1903,0.1905,0,0,0,0,0,0,0.1582,0.1586,0.1626,0.1612,0.1619,0.1656,0.1661,0.1668,0.1707,0.1717,0.1726,0.1733,0.1756,0.1763,0.1812,0.185,0.1797,0.1799,0.1899,0.1902,0.1904,0.1957,0,0,0,0,0,0,0.158,0.1585,0.1605,0.1612,0.1619,0.1655,0.166,0.1668,0.1709,0.1714,0.1751,0.1757,0.1757,0.1809,0.1814,0.1851,0.18,0.1897,0.19,0.1903,0.1953,0.1961,0.1968,0,0,0,0,0,0.1578,0.1593,0.1606,0.1612,0.164,0.1657,0.1662,0.169,0.171,0.173,0.1761,0.1758,0.1833,0.1812,0.1817,0.1856,0.1895,0.1899,0.1903,0.195,0.196,0.1968,0,0,0,0,0,0,0.1582,0.1599,0.1614,0.1635,0.1657,0.1666,0.1693,0.1709,0.1748,0.1767,0.1775,0.1784,0.184,0.1842,0.1818,0.1897,0.1866,0.1871,0.19,0.1909,0.1916,0.1921,0.1802,0,0,0,0,0,0.159,0.1609,0.1625,0.1648,0.1661,0.1684,0.1702,0.1722,0.1748,0.1768,0.1795,0.1827,0.1853,0.1877,0.1897,0.1939,0.1942,0.1969,0.1977,0.1983,0.1992,0.2033,0.2045,0.1918,0.1918,0.1918,0,0,0.16,0.1613,0.1626,0.1651,0.1673,0.1693,0.1699,0.1737,0.1765,0.1769,0.1832,0.1854,0.187,0.1918,0.1944,0.193,0.2021,0.1988,0.1993,0.1998,0.2039,0.2051,0.2062,0.1921,0.192,0.192,0,0,0.1614,0.1641,0.1658,0.1678,0.1716,0.1727,0.1745,0.1778,0.181,0.1861,0.1874,0.1924,0.1965,0.1986,0.1998,0.206,0.2057,0.2073,0.2119,0.216,0.2171,0.218,0.2195,0.2205,0.208,0.208,0.208,0,0.163,0.1647,0.1668,0.1689,0.1711,0.1745,0.1768,0.18,0.1849,0.1883,0.1894,0.1978,0.1995,0.2049,0.2077,0.2078,0.2093,0.2081,0.2169,0.2179,0.2188,0.2201,0.2211,0.2083,0.2083,0.2083,0.2082,0,0.1643,0.1672,0.1687,0.1722,0.1749,0.1778,0.1816,0.1864,0.1909,0.1942,0.2023,0.2051,0.2105,0.2119,0.2119,0.2194,0.2181,0.217,0.2143,0.2204,0.2213,0.2224,0.2088,0.2087,0.2086,0.2085,0,0,0.1634,0.1686,0.1695,0.1714,0.177,0.1785,0.1851,0.1906,0.1956,0.2024,0.2086,0.2149,0.2185,0.2202,0.2216,0.2255,0.2328,0.2249,0.225,0.2258,0.2411,0.225,0.2245,0.2339,0.2341,0.2343,0.239,0,0.164,0.1676,0.1705,0.1747,0.1766,0.1822,0.187,0.1934,0.2,0.2072,0.2133,0.2197,0.221,0.2247,0.2294,0.2325,0.236,0.2316,0.2357,0.2357,0.2202,0.2253,0.235,0.2398,0.24,0.2401,0.2403,0,0.1634,0.1659,0.1701,0.1753,0.1768,0.1807,0.1894,0.1944,0.2053,0.2112,0.2204,0.2249,0.234,0.2327,0.2428,0.2405,0.2419,0.243,0.2432,0.2269,0.2215,0.2328,0.2421,0.2419,0.2418,0.2417,0.2416,0,0.1593,0.165,0.1682,0.1702,0.1773,0.1816,0.1864,0.1967,0.2025,0.2151,0.2214,0.2316,0.2391,0.2434,0.2482,0.2469,0.2564,0.2542,0.2402,0.2391,0.2498,0.2487,0.2596,0.2596,0.2596,0.2595,0.2595,0,0.1563,0.1591,0.1672,0.1687,0.1732,0.1797,0.1871,0.1939,0.2056,0.2126,0.224,0.2305,0.2429,0.2495,0.2507,0.2489,0.2592,0.2416,0.2397,0.2518,0.2509,0.2504,0.2493,0.2597,0.2597,0.2596,0.2596,0,0.1506,0.1562,0.1598,0.1682,0.1713,0.1748,0.1864,0.1914,0.2042,0.214,0.2186,0.2342,0.2428,0.2503,0.258,0.2514,0.2504,0.2463,0.2587,0.2574,0.2294,0.2286,0.231,0.2305,0.23,0.2297,0.2294,0,0.1474,0.1492,0.1582,0.1606,0.165,0.1722,0.1769,0.1896,0.1952,0.2136,0.2163,0.2308,0.239,0.2371,0.246,0.2458,0.2428,0.2397,0.2343,0.2288,0.2268,0.2267,0.2264,0.2287,0.2286,0.2284,0.2283,0,0.1411,0.1461,0.1489,0.1537,0.1588,0.1637,0.1716,0.1743,0.1889,0.2032,0.2091,0.2133,0.2226,0.2279,0.2299,0.229,0.2402,0.235,0.2359,0.2308,0.226,0.2244,0.2247,0.2268,0.227,0.2272,0.2272,0,0.1367,0.1362,0.1408,0.1433,0.1502,0.1518,0.1575,0.1632,0.1701,0.1897,0.1916,0.2062,0.2209,0.2192,0.2205,0.2192,0.2156,0.2069,0.2091,0.2109,0.202,0.1929,0.1823,0,0,0,0,0,0.1303,0.1274,0.1296,0.1302,0.1374,0.141,0.152,0.1584,0.173,0.1722,0.1812,0.1878,0.1925,0.2001,0.1947,0.2109,0.2158,0.2035,0.2067,0.2183,0.2201,0.2114,0,0,0,0,0,0,0.1254,0.126,0.1247,0.1202,0.1192,0.1243,0.1311,0.141,0.1412,0.1578,0.1619,0.1747,0.1826,0.1934,0.1906,0.1926,0.1902,0.2128,0.2122,0.2173,0.2189,0.2203,0.212,0,0,0,0,0]},{"header":{"parameterUnit":"m.s-1","parameterCategory":2,"la1":30.2991,"la2":30.254,"lo1":-89.0895,"lo2":-89.0444,"dy":0.0017,"dx":0.0017,"nx":28,"ny":28,"refTime":"2025-04-16T21:00:00:Z","depth":"4","parameterNumber":3,"parameterNumberName":"V-component_of_CURRENTS"},"data":[0,0,0,0,0,0,0,0,0,0,0,0,0,0,0,0,0,0,0,0,0,0,0,0,0,0,0,0,0,0,0,0,0,0,0,0,0,0,0,0,0,0,0,0,0,0,0,0,0,0,0,0,0,0,0,0,0,0,0.0058,0.0058,0,0.0049,0.0048,0.0048,0.0038,0.0038,0.0038,0.0038,0.0014,0.0013,0.0013,0,0,0,0,0,0,0,0,0,0,0,0,0,0.005,0.005,0.0058,0.0058,0.0058,0.0049,0.0048,0.0048,0.0038,0.0038,0.0038,0.0038,0.0014,0.0013,0.0013,0,0,0,0,0,0,0,0,0,0,0,0,0,0.0048,0.0051,0.0058,0.0052,0.0052,0.0049,0.0048,0.0048,0.0038,0.0038,0.0038,0.0038,0.0014,0.0013,0.0013,0.001,0,0,0.001,0.001,0,0,0,0,0,0,0,0,0.0048,0.0048,0.0053,0.0052,0.0052,0.0045,0.0037,0.0035,0.0038,0.0043,0.0038,0.0038,0.0023,0.0022,0.002,0.0009,0.0008,0.001,0.0009,0.0009,0.0009,0,0,0,0,0,0,0,0.0048,0.0048,0.0053,0.0053,0.0052,0.0044,0.0044,0.0036,0.0033,0.0042,0.0042,0.0042,0.0023,0.002,0.0019,0.0007,0.001,0.0009,0.0009,0.0008,-0.0,0.0,0,0,0,0,0,0,0.0052,0.0049,0.0054,0.0053,0.005,0.0045,0.0044,0.0047,0.0033,0.0032,0.0042,0.0041,0.0022,0.002,0.0018,0.003,0.0009,0.0008,0.0008,-0.0,-0.0,0.0,0,0,0,0,0,0,0.0052,0.0052,0.0054,0.0051,0.0051,0.0045,0.0048,0.0047,0.0046,0.0033,0.0031,0.0043,0.0022,0.0019,0.0019,0.0028,0.0008,0.0007,-0.0001,-0.0,0.0,0.0043,0,0,0,0,0,0,0.0052,0.0053,0.0056,0.0051,0.0051,0.0058,0.0048,0.0047,0.0047,0.0046,0.0034,0.0031,0.0021,0.0021,0.0019,0.0027,0.0006,-0.0001,-0.0001,-0.0,0.0041,0.0045,0.0048,0,0,0,0,0,0.0051,0.0058,0.0056,0.0056,0.0056,0.0058,0.0058,0.0052,0.0047,0.0051,0.0045,0.0032,0.0022,0.0021,0.0018,0.0026,-0.0001,-0.0001,-0.0,0.004,0.0044,0.0048,0,0,0,0,0,0,0.0056,0.0058,0.0055,0.0062,0.0062,0.0057,0.006,0.0055,0.0053,0.0053,0.0038,0.0035,0.0037,0.0025,0.0023,0.0024,0.0007,0.0007,0.0038,0.0042,0.0046,0.0057,0.0006,0,0,0,0,0,0.0059,0.0065,0.0064,0.0069,0.0071,0.0065,0.0065,0.0063,0.006,0.0059,0.0053,0.0044,0.0037,0.0035,0.0027,0.003,0.0004,0.0032,0.0035,0.0038,0.0045,0.0014,0.0015,0.0002,0.0002,0.0002,0,0,0.0063,0.0064,0.0067,0.0071,0.007,0.0082,0.0065,0.007,0.0082,0.0057,0.0071,0.0056,0.004,0.0044,0.0043,0.0036,0.0026,0.0039,0.0042,0.0047,0.0015,0.0016,0.0017,0.0003,0.0003,0.0003,0,0,0.0075,0.0074,0.0085,0.009,0.0093,0.0094,0.0097,0.0097,0.0098,0.0106,0.0091,0.0084,0.0076,0.0069,0.0063,0.0079,0.0043,0.0073,0.0102,0.0072,0.0073,0.0073,0.0032,0.0029,0.0077,0.0077,0.0077,0,0.008,0.0095,0.0088,0.0102,0.0113,0.0102,0.0122,0.0122,0.0124,0.0128,0.0117,0.0105,0.0089,0.0093,0.0099,0.0088,0.0059,0.009,0.0077,0.0077,0.0076,0.0034,0.0029,0.0079,0.0079,0.0078,0.0078,0,0.0103,0.0116,0.0124,0.0142,0.0152,0.0166,0.0171,0.0178,0.0176,0.0174,0.0175,0.0154,0.0147,0.0138,0.0124,0.0119,0.0094,0.0083,0.0068,0.008,0.0035,0.0029,0.0082,0.0081,0.0081,0.008,0,0,0.0113,0.0136,0.0141,0.016,0.0177,0.0191,0.0211,0.0227,0.0242,0.0231,0.0244,0.0226,0.0208,0.0199,0.0177,0.0152,0.0119,0.0121,0.0118,0.0082,0.0041,0.0033,0.0025,0.0104,0.0103,0.0103,0.0006,0,0.0136,0.0173,0.0179,0.0222,0.0245,0.0249,0.0273,0.0284,0.0284,0.0291,0.0263,0.0265,0.0234,0.023,0.02,0.0144,0.0108,0.0146,0.0032,0.0029,0.0022,0.002,0.0102,0.0002,0.0001,-0.0,-0.0001,0,0.0159,0.0184,0.0229,0.0271,0.0282,0.0307,0.0345,0.0366,0.0367,0.0365,0.0354,0.0326,0.0298,0.0265,0.0172,0.0196,0.0124,0.0071,0.0066,0.0042,0.0011,-0.0012,-0.0011,-0.0011,-0.001,-0.0009,-0.0008,0,0.0177,0.0221,0.026,0.0275,0.0319,0.0343,0.037,0.0388,0.0417,0.0413,0.042,0.0375,0.0363,0.0269,0.0163,0.0165,0.0047,0.0033,-0.0047,-0.005,-0.0033,-0.0032,-0.0043,-0.0043,-0.0042,-0.0042,-0.0042,0,0.0201,0.0233,0.0274,0.0298,0.0355,0.0376,0.0432,0.0446,0.0474,0.0512,0.0464,0.047,0.0364,0.0285,0.0173,0.0048,0.005,-0.0043,-0.0072,-0.0014,-0.001,-0.0038,-0.0036,-0.0046,-0.0045,-0.0044,-0.0044,0,0.0211,0.0236,0.0285,0.034,0.0365,0.0407,0.0485,0.0524,0.054,0.0585,0.0588,0.0544,0.0448,0.0318,0.0168,0.0075,-0.0056,-0.0106,-0.0042,-0.0066,-0.0139,-0.0134,-0.0202,-0.0203,-0.0204,-0.0205,-0.0205,0,0.0218,0.0244,0.0315,0.0355,0.0383,0.0453,0.0508,0.0556,0.06,0.0629,0.0649,0.0581,0.053,0.0313,0.0169,-0.005,-0.0081,-0.0161,-0.0142,-0.0133,-0.0154,-0.0147,-0.0141,-0.0207,-0.0207,-0.0207,-0.0207,0,0.023,0.0253,0.0295,0.0376,0.0441,0.0521,0.0597,0.0637,0.0696,0.0706,0.0705,0.0604,0.0496,0.0329,0.016,0.0,-0.0113,-0.0171,-0.017,-0.0153,-0.0139,-0.0158,-0.0151,-0.021,-0.021,-0.021,-0.0209,0,0.0236,0.0262,0.0318,0.0393,0.0478,0.0567,0.061,0.0671,0.072,0.0751,0.0748,0.0633,0.0577,0.0354,0.0193,0.0042,0.0004,-0.0055,-0.0061,-0.006,0.0012,0.0052,0.0016,0,0,0,0,0,0.0239,0.0272,0.0336,0.0421,0.0509,0.0566,0.0663,0.0701,0.0755,0.0764,0.0763,0.0662,0.0457,0.0367,0.0216,0.0158,-0.004,-0.0028,-0.0115,-0.0227,-0.0223,-0.0164,0,0,0,0,0,0,0.0242,0.0291,0.0327,0.0436,0.0503,0.0607,0.0676,0.0715,0.0721,0.0748,0.0645,0.0607,0.0406,0.0545,0.0209,0.0163,0.0082,-0.0119,-0.0123,-0.0229,-0.0226,-0.0223,-0.0161,0,0,0,0,0]}]]